West Chester Brandywine Airpo, PA

3:57 AM EST on November 21, 2019 (GMT -0500)
West Chester Brandywine Airpo

Weather History for KOQN - September, 2019

Change the Weather History Date:

Friday, September 13, 2019

  Actual Average (KPHL) Record (KPHL)
Temperature  
Mean Temperature 64 °F -  
Max Temperature 68 °F 80 °F 95 °F (1952)
Min Temperature 60 °F 60 °F 44 °F (1958)
Degree Days  
Heating Degree Days 1    
Growing Degree Days 14 (Base 50)    
Moisture  
Dew Point 55 °F    
Average Humidity 75    
Maximum Humidity 94    
Minimum Humidity 56    
Precipitation  
Precipitation 0.00 in - - ()
Sea Level Pressure  
Sea Level Pressure 30.39 in    
Wind  
Wind Speed 7 mph (East)    
Max Wind Speed 12 mph    
Max Gust Speed 18 mph    
Visibility 10 miles    
Events Rain    
Averages and records for this station are not official NWS values.
T = Trace of Precipitation, MM = Missing Value Source: NWS Daily Summary

Daily Weather History Graph

Daily Weather History Graph

Search for Another Location

Airport or City:

Astronomy

Sep. 13, 2019 Rise Set
Actual Time 6:41 AM EDT 7:14 PM EDT
Civil Twilight 6:13 AM EDT 7:41 PM EDT
Nautical Twilight 5:41 AM EDT 8:13 PM EDT
Astronomical Twilight 5:08 AM EDT 8:46 PM EDT
Moon 7:27 PM EDT (9/13) 5:55 AM EDT (9/13)
Length of Visible Light 13h 27m
Length of Day
12h 33m
Full, 100% of the Moon is Illuminated
Sep 13
Full
Sep 14
Full
Sep 21
Last Quarter
Sep 28
New
Oct 5
First Quarter

Hourly Weather History & Observations

Time (EDT) Temp. Dew Point Humidity Pressure Visibility Wind Dir Wind Speed Gust Speed Precip Events Conditions
12:15 AM 64.4 °F 62.6 °F 94% 30.25 in 10.0 mi East 6.9 mph - N/A   Overcast
12:35 AM 64.4 °F 62.6 °F 94% 30.26 in 10.0 mi East 11.5 mph 17.3 mph N/A   Overcast
12:55 AM 64.4 °F 60.8 °F 88% 30.27 in 10.0 mi ENE 9.2 mph - N/A   Overcast
1:15 AM 64.4 °F 60.8 °F 88% 30.28 in 10.0 mi East 9.2 mph - N/A   Overcast
1:35 AM 62.6 °F 60.8 °F 94% 30.29 in 7.0 mi East 5.8 mph - N/A   Overcast
1:55 AM 62.6 °F 60.8 °F 94% 30.29 in 3.0 mi East 9.2 mph - N/A   Overcast
2:15 AM 62.6 °F 60.8 °F 94% 30.29 in 2.5 mi East 5.8 mph - N/A Rain Light Rain
2:35 AM 60.8 °F 59.0 °F 94% 30.29 in 4.0 mi ENE 6.9 mph 18.4 mph N/A   Overcast
2:55 AM 60.8 °F 59.0 °F 94% 30.30 in 10.0 mi ENE 5.8 mph - N/A   Overcast
3:15 AM 60.8 °F 59.0 °F 94% 30.29 in 10.0 mi ENE 6.9 mph - N/A   Overcast
3:35 AM 60.8 °F 59.0 °F 94% 30.30 in 10.0 mi ENE 6.9 mph - N/A   Overcast
3:55 AM 60.8 °F 59.0 °F 94% 30.31 in 10.0 mi NE 5.8 mph - N/A   Overcast
4:15 AM 60.8 °F 59.0 °F 94% 30.32 in 10.0 mi NE 5.8 mph - N/A   Overcast
4:35 AM 60.8 °F 59.0 °F 94% 30.32 in 10.0 mi East 5.8 mph - N/A   Overcast
4:55 AM 60.8 °F 57.2 °F 88% 30.33 in 10.0 mi ENE 6.9 mph - N/A   Overcast
5:15 AM 60.8 °F 55.4 °F 82% 30.34 in 10.0 mi ENE 8.1 mph - N/A   Overcast
5:35 AM 60.8 °F 55.4 °F 82% 30.34 in 10.0 mi ENE 9.2 mph - N/A   Overcast
5:55 AM 60.8 °F 55.4 °F 82% 30.35 in 10.0 mi ENE 5.8 mph - N/A   Overcast
6:15 AM 60.8 °F 55.4 °F 82% 30.35 in 10.0 mi ENE 5.8 mph - N/A   Overcast
6:35 AM 60.8 °F 53.6 °F 77% 30.36 in 10.0 mi ENE 5.8 mph - N/A   Overcast
6:55 AM 60.8 °F 53.6 °F 77% 30.37 in 10.0 mi ENE 4.6 mph - N/A   Overcast
7:15 AM 60.8 °F 53.6 °F 77% 30.37 in 10.0 mi ENE 8.1 mph - N/A   Overcast
7:35 AM 60.8 °F 53.6 °F 77% 30.39 in 10.0 mi East 6.9 mph - N/A   Overcast
7:55 AM 60.8 °F 53.6 °F 77% 30.39 in 10.0 mi ENE 8.1 mph - N/A   Overcast
8:15 AM 60.8 °F 53.6 °F 77% 30.40 in 10.0 mi ENE 6.9 mph - N/A   Overcast
8:35 AM 60.8 °F 53.6 °F 77% 30.41 in 10.0 mi ENE 8.1 mph - N/A   Overcast
8:55 AM 60.8 °F 53.6 °F 77% 30.41 in 10.0 mi ENE 10.4 mph 16.1 mph N/A   Overcast
9:15 AM 60.8 °F 53.6 °F 77% 30.41 in 10.0 mi ENE 9.2 mph 18.4 mph N/A   Overcast
9:35 AM 60.8 °F 53.6 °F 77% 30.42 in 10.0 mi ENE 9.2 mph - N/A   Overcast
9:55 AM 60.8 °F 53.6 °F 77% 30.42 in 10.0 mi East 6.9 mph - N/A   Overcast
10:15 AM 60.8 °F 53.6 °F 77% 30.43 in 10.0 mi East 6.9 mph - N/A   Overcast
10:35 AM 62.6 °F 53.6 °F 72% 30.43 in 10.0 mi ENE 8.1 mph - N/A   Overcast
10:55 AM 62.6 °F 53.6 °F 72% 30.43 in 10.0 mi ENE 10.4 mph - N/A   Overcast
11:15 AM 62.6 °F 55.4 °F 77% 30.44 in 10.0 mi ENE 5.8 mph - N/A   Overcast
11:35 AM 62.6 °F 53.6 °F 72% 30.44 in 10.0 mi ENE 9.2 mph 17.3 mph N/A   Overcast
11:55 AM 62.6 °F 55.4 °F 77% 30.44 in 10.0 mi East 9.2 mph - N/A   Overcast
12:15 PM 64.4 °F 55.4 °F 73% 30.43 in 10.0 mi ESE 9.2 mph 16.1 mph N/A   Overcast
12:35 PM 64.4 °F 55.4 °F 73% 30.44 in 10.0 mi East 9.2 mph - N/A   Overcast
12:55 PM 64.4 °F 55.4 °F 73% 30.44 in 10.0 mi East 4.6 mph - N/A   Overcast
1:15 PM 64.4 °F 55.4 °F 73% 30.44 in 10.0 mi ESE 4.6 mph - N/A   Overcast
1:35 PM 64.4 °F 55.4 °F 73% 30.44 in 10.0 mi ESE 5.8 mph - N/A   Overcast
1:55 PM 64.4 °F 55.4 °F 73% 30.44 in 10.0 mi ESE 9.2 mph - N/A   Overcast
2:15 PM 64.4 °F 55.4 °F 73% 30.43 in 10.0 mi ESE 4.6 mph - N/A   Overcast
2:35 PM 66.2 °F 53.6 °F 64% 30.43 in 10.0 mi East 4.6 mph - N/A   Overcast
2:55 PM 66.2 °F 53.6 °F 64% 30.43 in 10.0 mi East 4.6 mph - N/A   Overcast
3:15 PM 68.0 °F 51.8 °F 56% 30.42 in 10.0 mi ESE 5.8 mph - N/A   Overcast
3:35 PM 68.0 °F 51.8 °F 56% 30.42 in 10.0 mi ESE 9.2 mph - N/A   Overcast
3:55 PM 68.0 °F 51.8 °F 56% 30.42 in 10.0 mi ESE 9.2 mph - N/A   Overcast
4:15 PM 68.0 °F 51.8 °F 56% 30.42 in 10.0 mi ESE 8.1 mph - N/A   Overcast
4:35 PM 68.0 °F 51.8 °F 56% 30.42 in 10.0 mi ESE 6.9 mph - N/A   Overcast
4:55 PM 68.0 °F 51.8 °F 56% 30.42 in 10.0 mi ESE 4.6 mph - N/A   Overcast
5:15 PM 68.0 °F 51.8 °F 56% 30.42 in 10.0 mi ESE 6.9 mph - N/A   Overcast
5:35 PM 66.2 °F 51.8 °F 60% 30.42 in 10.0 mi ESE 8.1 mph - N/A   Overcast
5:55 PM 66.2 °F 51.8 °F 60% 30.42 in 10.0 mi ESE 4.6 mph - N/A   Overcast
6:35 PM 66.2 °F 53.6 °F 64% 30.41 in 10.0 mi ESE 6.9 mph - N/A   Overcast
6:55 PM 64.4 °F 53.6 °F 68% 30.41 in 10.0 mi ESE 6.9 mph - N/A   Overcast
7:15 PM 64.4 °F 53.6 °F 68% 30.41 in 10.0 mi East 5.8 mph - N/A   Overcast
7:35 PM 64.4 °F 51.8 °F 64% 30.42 in 10.0 mi ESE 6.9 mph - N/A   Overcast
7:55 PM 64.4 °F 53.6 °F 68% 30.42 in 10.0 mi East 3.5 mph - N/A   Overcast
8:15 PM 62.6 °F 51.8 °F 68% 30.42 in 10.0 mi ESE 4.6 mph - N/A   Overcast
8:35 PM 62.6 °F 51.8 °F 68% 30.42 in 10.0 mi ESE 6.9 mph - N/A   Overcast
8:55 PM 62.6 °F 51.8 °F 68% 30.42 in 10.0 mi ESE 5.8 mph - N/A   Overcast
9:15 PM 62.6 °F 51.8 °F 68% 30.42 in 10.0 mi ESE 5.8 mph - N/A   Scattered Clouds
9:35 PM 62.6 °F 51.8 °F 68% 30.42 in 10.0 mi ESE 4.6 mph - N/A   Clear
9:55 PM 62.6 °F 51.8 °F 68% 30.42 in 10.0 mi East 3.5 mph - N/A   Clear
10:15 PM 62.6 °F 51.8 °F 68% 30.41 in 10.0 mi ESE 3.5 mph - N/A   Mostly Cloudy
10:35 PM 62.6 °F 51.8 °F 68% 30.41 in 10.0 mi ESE 6.9 mph - N/A   Overcast
10:55 PM 62.6 °F 51.8 °F 68% 30.40 in 10.0 mi ESE 3.5 mph - N/A   Overcast
11:35 PM 62.6 °F 51.8 °F 68% 30.40 in 10.0 mi East 4.6 mph - N/A   Overcast
11:55 PM 62.6 °F 51.8 °F 68% 30.40 in 10.0 mi Calm Calm - N/A   Overcast